Weather History for KNPA - January, 2013

Change the Weather History Date:

Sunday, January 27, 2013

  Actual Average (KPNS) Record (KPNS)
Temperature  
Mean Temperature 61 °F 52 °F  
Max Temperature 68 °F 61 °F 79 °F (1954)
Min Temperature 54 °F 43 °F 14 °F (1940)
Degree Days  
Heating Degree Days 4 13  
Month to date heating degree days 376  
Since 1 July heating degree days 958  
Cooling Degree Days 0 0  
Month to date cooling degree days 0  
Year to date cooling degree days 0  
Growing Degree Days 11 (Base 50)    
Moisture  
Dew Point 58 °F    
Average Humidity 93    
Maximum Humidity 100    
Minimum Humidity 75    
Precipitation  
Precipitation 0.00 in 0.16 in 1.57 in (1985)
Month to date precipitation 3.97  
Year to date precipitation 3.97  
Snow  
Snow 0.00 in 0.00 in - ()
Month to date snowfall 0.0  
Since 1 July snowfall 0.0  
Snow Depth -    
Sea Level Pressure  
Sea Level Pressure 30.28 in    
Wind  
Wind Speed 5 mph (East)    
Max Wind Speed 10 mph    
Max Gust Speed -    
Visibility 7 miles    
Events      
T = Trace of Precipitation, MM = Missing Value Source: NWS Daily Summary

Daily Weather History Graph

Daily Weather History Graph

Search for Another Location

Airport or City:

Trip Planner

Search our weather history database for the weather conditions in past years. The results will help you decide how hot, cold, wet, or windy it might be!

Date:

Astronomy

Jan. 27, 2013 Rise Set
Actual Time 6:42 AM CST 5:21 PM CST
Civil Twilight 6:17 AM CST 5:47 PM CST
Nautical Twilight 5:48 AM CST 6:16 PM CST
Astronomical Twilight 5:19 AM CST 6:44 PM CST
Moon 6:08 PM CST (1/27) 6:41 AM CST (1/27)
Length of Visible Light 11h 29m
Length of Day
10h 39m
Full, 100% of the Moon is Illuminated
Jan 27
Full
Feb 3
Last Quarter
Feb 10
New
Feb 17
First Quarter
Feb 25
Full

Hourly Weather History & Observations

Time (CST) Temp. Dew Point Humidity Pressure Visibility Wind Dir Wind Speed Gust Speed Precip Events Conditions
12:56 AM 57.0 °F 55.9 °F 96% 30.27 in 10.0 mi NE 4.6 mph - N/A   Clear
1:56 AM 57.0 °F 55.0 °F 93% 30.27 in 10.0 mi NNE 3.5 mph - N/A   Clear
2:56 AM 55.0 °F 54.0 °F 96% 30.26 in 9.0 mi NE 4.6 mph - N/A   Clear
3:56 AM 54.0 °F 54.0 °F 100% 30.26 in 8.0 mi ENE 4.6 mph - N/A   Clear
4:56 AM 54.0 °F 54.0 °F 100% 30.26 in 7.0 mi ENE 4.6 mph - N/A   Clear
5:56 AM 55.0 °F 54.0 °F 96% 30.27 in 9.0 mi ENE 5.8 mph - 0.00 in   Clear
6:56 AM 55.0 °F 55.0 °F 100% 30.28 in 8.0 mi East 5.8 mph - N/A   Clear
7:19 AM 55.4 °F 55.4 °F 100% 30.28 in 7.0 mi ENE 5.8 mph - N/A   Partly Cloudy
7:56 AM 59.0 °F 57.9 °F 96% 30.30 in 9.0 mi East 8.1 mph - N/A   Clear
8:56 AM 61.0 °F 57.0 °F 87% 30.32 in 10.0 mi ENE 8.1 mph - N/A   Partly Cloudy
9:56 AM 63.0 °F 55.9 °F 78% 30.33 in 10.0 mi East 8.1 mph - N/A   Mostly Cloudy
10:56 AM 64.9 °F 57.0 °F 75% 30.32 in 10.0 mi East 9.2 mph - N/A   Mostly Cloudy
11:56 AM 66.9 °F 59.0 °F 76% 30.30 in 10.0 mi ESE 10.4 mph - N/A   Mostly Cloudy
12:56 PM 68.0 °F 60.1 °F 76% 30.27 in 10.0 mi SE 10.4 mph - N/A   Mostly Cloudy
1:56 PM 68.0 °F 60.1 °F 76% 30.27 in 10.0 mi ESE 10.4 mph - N/A   Mostly Cloudy
2:56 PM 66.9 °F 60.1 °F 79% 30.27 in 9.0 mi ESE 8.1 mph - N/A   Mostly Cloudy
3:56 PM 66.0 °F 61.0 °F 84% 30.27 in 7.0 mi ESE 9.2 mph - N/A   Overcast
4:56 PM 64.0 °F 60.1 °F 87% 30.27 in 8.0 mi ESE 5.8 mph - N/A   Mostly Cloudy
5:30 PM 60.8 °F 59.0 °F 94% 30.26 in 7.0 mi East 3.5 mph - N/A   Mostly Cloudy
5:56 PM 61.0 °F 59.0 °F 93% 30.27 in 7.0 mi Calm Calm - N/A   Clear
6:56 PM 57.9 °F 57.0 °F 97% 30.28 in 4.0 mi Calm Calm - N/A   Mostly Cloudy
7:24 PM 57.2 °F 57.2 °F 100% 30.27 in 1.5 mi Calm Calm - N/A   Scattered Clouds
7:36 PM 57.2 °F 57.2 °F 100% 30.27 in 3.0 mi Calm Calm - N/A   Partly Cloudy
7:51 PM 57.2 °F 57.2 °F 100% 30.27 in 1.8 mi Calm Calm - N/A   Scattered Clouds
7:56 PM 57.0 °F 57.0 °F 100% 30.27 in 1.0 mi East 4.6 mph - N/A   Mostly Cloudy
8:06 PM 55.4 °F 55.4 °F 100% 30.27 in 3.0 mi East 4.6 mph - N/A   Scattered Clouds
8:56 PM 62.1 °F 61.0 °F 96% 30.28 in 8.0 mi ESE 6.9 mph - 0.00 in   Partly Cloudy
9:22 PM 62.6 °F 62.6 °F 100% 30.27 in 8.0 mi ESE 6.9 mph - N/A   Mostly Cloudy
9:35 PM 62.6 °F 62.6 °F 100% 30.27 in 8.0 mi ESE 6.9 mph - N/A   Scattered Clouds
9:56 PM 63.0 °F 62.1 °F 97% 30.27 in 9.0 mi SE 5.8 mph - N/A   Scattered Clouds
10:56 PM 57.9 °F 57.9 °F 100% 30.27 in 6.0 mi Calm Calm - N/A   Partly Cloudy
11:22 PM 57.2 °F 57.2 °F 100% 30.27 in 1.8 mi Calm Calm - N/A   Clear
11:35 PM 57.2 °F 57.2 °F 100% 30.26 in 3.0 mi Calm Calm - N/A   Clear
11:56 PM 55.9 °F 55.9 °F 100% 30.26 in 8.0 mi SE 4.6 mph - 0.00 in   Clear